RH
71 71 71 71 70 70 70 70 70 71 70 69 69 70 70 70 70 71 71 71 72 71 73 75 76 75 72 48 27 37 59 53 49 40 25 26 28 30 30 24 24 27 27 23 21 26 26
71 71 70 71 70 70 70 70 70 70 70 69 68 69 70 70 71 71 71 72 73 74 76 77 76 77 74 46 16 30 32 43 36 31 23 22 21 23 25 26 27 24 28 30 26 27 28
71 70 70 70 70 70 70 70 70 70 70 69 69 70 71 70 70 71 73 74 76 78 80 80 79 69 61 36 13 19 18 22 24 23 20 19 19 25 24 28 24 29 36 28 26 26 29
70 70 70 70 70 69 69 70 70 70 70 69 70 71 72 72 72 75 77 77 78 78 72 73 80 61 39 22 15 12 12 15 14 15 17 17 20 26 25 24 28 31 28 36 22 23 27
70 70 70 70 70 70 69 69 69 69 69 70 70 70 72 73 78 82 80 78 74 77 73 77 62 43 34 26 20 15 13 17 16 15 17 17 23 24 24 32 28 26 32 30 25 23 26
69 69 70 70 70 69 69 69 69 69 69 70 70 72 74 79 82 81 78 74 64 74 57 33 24 44 29 27 19 15 12 16 18 21 22 25 27 29 26 28 41 40 27 21 23 25 29
70 70 70 70 69 69 69 69 69 69 69 71 72 77 78 80 79 77 59 38 39 48 39 41 45 43 37 35 19 20 15 16 18 21 28 27 35 41 30 26 25 23 23 28 24 19 23
70 70 70 69 69 69 69 69 68 68 69 70 75 78 79 78 75 72 44 54 82 74 79 44 49 48 41 41 41 24 16 24 28 36 30 35 42 30 27 28 30 30 31 27 22 22 26
70 70 69 69 69 68 68 68 68 68 69 70 76 77 78 78 72 58 58 68 62 65 70 44 48 35 24 23 39 36 19 24 29 36 35 38 26 21 28 26 27 27 28 27 31 27 24
70 70 69 69 68 68 69 69 69 68 73 76 76 77 77 73 65 56 58 56 58 64 61 51 42 29 22 22 28 19 18 21 21 24 22 24 21 22 23 24 22 35 25 29 33 35 39
70 70 69 69 68 70 70 69 68 72 75 76 77 77 73 70 65 48 50 46 54 66 74 37 31 20 25 27 26 25 16 18 25 23 25 33 29 28 29 30 26 34 23 25 29 33 35
70 69 69 68 68 69 68 68 69 74 75 77 77 76 72 53 54 42 44 50 69 71 81 56 41 43 36 31 28 25 21 17 20 26 23 25 22 26 29 24 23 22 26 28 30 33 57
70 69 68 68 68 69 68 70 72 73 75 77 77 75 58 47 49 41 49 61 55 49 31 47 53 42 37 35 42 39 36 36 45 56 48 41 33 24 23 30 24 25 34 56 65 71 53
69 69 70 69 70 70 68 68 70 70 76 77 76 71 52 44 35 47 59 45 46 31 42 47 48 42 44 50 47 48 45 43 40 39 45 42 52 33 26 30 36 31 36 55 71 48 51
68 69 67 68 69 70 67 69 71 75 78 76 73 43 42 31 38 53 52 43 36 58 58 59 39 33 30 58 55 47 40 42 52 58 46 47 50 32 29 22 40 38 43 52 70 41 60
69 71 70 71 70 70 69 71 72 74 76 74 56 47 41 33 45 62 49 37 48 58 59 52 47 33 42 44 51 40 38 46 67 68 56 72 68 50 32 26 36 52 43 60 57 69 55
73 72 71 71 71 72 72 73 72 74 74 71 52 52 38 37 53 42 45 41 36 39 46 48 42 47 40 44 60 55 56 72 96 70 55 63 71 57 48 45 48 53 48 53 72 70 70
73 73 74 72 74 77 74 73 73 72 76 62 58 56 40 41 36 29 38 41 45 37 40 45 46 49 65 73 77 56 47 91 65 64 90 72 81 64 39 54 55 56 58 62 78 63 82
74 74 74 74 77 79 78 75 74 74 76 73 74 57 40 36 39 42 41 43 39 43 42 45 48 61 61 73 78 56 56 94 77 82 93 78 66 57 34 51 68 78 76 66 69 78 73
75 75 74 74 77 79 79 78 76 74 76 85 91 70 40 37 44 52 56 47 51 41 46 60 64 49 63 57 45 78 67 74 55 57 62 70 77 64 60 43 39 56 41 40 60 89 55
76 75 75 74 74 75 76 74 74 76 78 92 99 73 52 57 49 48 51 52 55 47 43 44 51 50 88 76 64 56 44 50 47 46 57 68 75 52 42 42 43 49 49 47 58 54 69
75 76 75 73 72 70 71 72 71 74 84 98 99 91 88 73 55 59 59 54 51 45 47 52 59 62 74 90 64 92 73 69 70 67 61 64 71 53 60 43 40 48 40 44 46 43 44
71 72 73 67 69 69 70 71 70 70 74 98 98 96 99 89 80 82 60 52 47 42 45 46 55 78 75 60 56 57 55 54 60 66 73 77 72 76 63 34 43 57 46 42 45 42 42
77 77 76 62 63 68 69 69 71 71 70 91 97 99 100 89 93 74 57 53 51 51 64 49 51 72 73 71 61 57 61 64 60 60 56 88 80 85 65 47 69 41 32 36 37 37 35
79 75 69 63 66 66 70 72 73 67 71 89 90 99 100 95 74 83 81 74 75 74 67 66 55 58 83 72 77 77 43 55 57 64 75 86 85 88 69 54 40 33 43 40 40 35 33
74 69 64 66 67 69 71 72 72 72 72 85 88 96 100 99 84 94 89 89 89 86 62 61 71 76 82 75 67 84 60 58 48 71 68 86 88 90 67 69 58 38 33 28 33 42 33
67 67 67 68 70 72 73 73 74 74 73 83 87 83 100 100 80 78 92 93 94 82 80 65 79 89 82 70 71 65 59 52 70 65 72 85 85 80 60 80 49 42 35 35 57 71 34
63 66 66 67 68 71 71 65 65 73 73 84 87 76 98 100 99 96 92 95 93 83 85 93 87 92 89 85 67 64 68 70 69 59 55 59 73 69 60 81 67 34 35 52 83 76 68
66 67 68 67 67 65 64 64 66 70 73 77 97 78 87 100 100 91 74 62 62 63 93 97 79 71 75 82 76 74 71 72 56 67 47 70 55 82 69 57 46 65 80 83 84 89 89
Wind_Speed
17 17 18 18 19 20 21 21 22 22 24 25 26 26 27 28 29 30 29 27 25 24 21 19 14 8 5 8 12 7 8 12 14 13 15 15 16 18 15 14 19 22 21 17 16 13 17
16 17 18 19 20 21 22 22 23 23 23 24 25 27 28 29 29 30 30 30 28 25 22 20 15 10 9 13 3 6 6 10 10 13 15 16 9 18 12 16 16 4 13 17 15 18 16
16 18 19 20 21 22 23 24 25 26 26 27 27 28 29 30 31 31 31 30 28 26 22 16 12 11 9 10 2 5 8 8 7 9 10 12 13 9 5 15 17 11 14 16 19 20 17
18 19 20 21 21 22 23 25 26 27 27 28 29 30 31 32 33 33 32 29 24 18 11 5 9 12 6 3 0 4 5 5 6 6 6 4 8 12 15 6 5 8 15 15 6 11 5
18 19 19 19 21 23 24 25 26 27 28 29 30 31 32 33 33 32 30 25 17 5 3 9 7 6 2 4 4 2 4 5 6 4 4 5 6 9 7 13 13 15 15 17 15 13 5
17 18 19 20 21 22 23 24 25 27 28 29 30 32 32 33 34 30 25 19 3 5 5 4 2 6 5 2 3 2 1 5 4 7 5 7 8 10 12 14 14 14 18 17 13 6 8
18 18 20 20 21 22 23 24 25 27 29 31 32 32 32 32 31 26 19 3 4 6 5 7 8 7 5 2 3 3 2 7 5 8 10 12 9 15 20 20 21 21 19 17 13 9 8
18 19 19 20 22 23 24 26 27 28 29 31 32 32 33 33 28 20 9 7 4 5 12 9 8 6 5 3 4 5 4 9 10 15 15 10 18 20 18 13 13 16 17 17 14 7 6
17 18 20 22 23 24 25 26 28 29 30 31 30 32 33 31 23 8 10 8 5 3 7 3 3 4 2 3 2 5 4 4 8 12 13 15 1 2 9 9 11 14 15 12 11 5 11
18 19 20 21 23 24 26 27 28 29 29 29 31 31 32 30 9 7 3 10 8 4 6 6 3 3 2 3 3 1 0 4 4 7 10 12 5 5 7 10 10 12 6 2 6 5 8
17 19 21 22 23 25 26 28 29 29 28 29 31 32 31 15 8 6 10 12 6 4 7 3 4 3 1 4 1 4 2 4 8 4 4 1 2 4 8 3 2 2 4 2 6 11 12
17 18 19 20 23 24 25 26 27 27 28 30 32 33 27 0 4 7 13 11 4 6 6 3 1 1 6 4 3 3 4 3 2 5 8 13 2 2 4 2 2 2 2 3 3 4 7
18 19 20 21 22 23 25 25 26 28 28 31 33 34 13 6 7 14 10 4 6 6 4 2 2 3 9 6 4 3 5 7 4 5 8 6 5 3 1 2 1 3 4 4 6 7 5
20 21 21 22 22 22 23 25 27 27 27 31 35 26 5 5 11 10 5 6 7 4 5 5 5 15 8 2 4 3 4 7 5 3 5 7 6 6 4 2 3 9 7 6 6 5 3
20 21 22 23 23 23 24 24 25 25 24 28 31 9 4 6 12 6 6 6 6 8 7 12 17 8 4 2 4 4 6 10 3 3 6 4 3 4 2 2 2 5 6 2 5 9 7
21 21 22 22 23 23 24 25 24 23 23 26 12 8 4 12 10 5 5 4 5 6 9 8 8 4 9 4 7 5 5 4 3 2 3 2 6 2 4 4 3 4 3 3 3 5 10
20 21 21 22 22 22 22 23 23 23 21 22 8 8 6 15 3 6 5 7 9 7 10 7 11 15 16 15 7 10 6 3 5 1 4 3 3 6 5 7 2 4 5 4 4 7 9
20 21 22 22 21 22 23 22 22 23 18 10 6 7 9 11 9 2 6 11 8 9 7 8 8 9 9 5 6 7 9 4 4 2 3 2 3 7 12 6 2 2 5 5 6 7 3
20 21 21 21 21 21 21 22 22 22 16 5 8 7 4 9 4 6 10 9 11 10 10 6 7 4 7 7 7 5 5 5 5 5 3 2 2 5 6 4 3 3 5 4 6 5 9
21 21 22 22 21 21 20 21 21 21 16 0 4 6 3 2 1 3 5 6 8 6 9 3 8 9 7 6 8 8 9 2 5 7 7 4 4 9 12 15 11 9 12 12 9 6 10
22 22 22 22 22 23 21 21 20 20 17 2 2 4 4 8 10 7 5 6 10 7 3 6 6 8 5 4 9 13 6 13 13 8 3 4 10 13 14 16 14 14 16 16 15 15 15
23 22 22 23 23 23 22 20 19 18 6 2 4 3 3 8 12 11 9 7 11 8 4 10 12 15 6 7 12 14 11 9 7 2 4 4 7 9 10 12 14 16 18 17 16 16 16
23 23 21 22 24 23 22 20 19 17 10 3 2 2 3 4 6 8 12 13 9 6 7 8 10 10 15 17 12 10 13 14 14 13 10 5 4 3 9 4 6 11 17 14 10 7 7
24 25 22 24 23 23 22 20 20 16 13 6 3 3 4 7 10 13 11 12 14 11 14 13 11 13 5 4 12 14 16 18 18 17 13 6 8 6 5 7 8 4 2 3 6 7 7
27 22 24 26 24 23 21 21 20 17 18 7 4 3 4 7 11 14 17 20 9 11 13 14 13 10 1 6 6 5 10 7 3 6 10 11 8 4 4 6 11 9 5 2 3 8 4
26 27 27 25 24 23 22 21 20 19 19 9 5 3 3 4 4 6 6 9 7 8 11 8 1 1 3 4 4 4 4 5 1 5 2 8 9 5 4 5 4 9 5 3 1 4 7
27 26 26 25 24 24 23 21 21 20 18 9 5 6 4 4 7 4 4 3 4 3 6 5 3 2 3 4 6 5 4 2 3 3 5 5 5 10 10 6 6 6 4 1 4 4 4
26 25 26 25 25 23 23 20 21 20 19 9 6 5 3 3 3 8 6 4 4 5 8 2 3 3 4 5 3 2 3 1 3 1 1 3 3 4 5 4 8 4 4 3 3 3 4
28 28 28 26 24 24 24 24 23 19 17 8 3 2 4 4 3 3 8 12 11 12 5 4 3 1 2 4 2 3 3 3 3 3 1 4 6 4 4 1 4 5 4 3 2 2 1
Wind_Direction
30 27 23 20 15 11 8 5 1 357 354 350 348 345 342 338 333 329 326 322 317 311 306 297 292 284 245 230 256 130 141 147 156 178 194 191 198 204 224 227 233 233 247 264 255 267 266
27 23 20 16 12 7 3 0 358 356 353 350 346 343 340 336 330 326 322 318 316 309 298 285 273 259 226 242 49 143 158 162 183 189 201 208 218 218 273 255 236 268 255 262 264 254 256
23 20 17 13 9 5 1 358 356 354 352 350 347 343 338 334 329 324 319 316 315 311 301 279 247 207 228 258 52 158 174 193 205 217 217 221 242 226 229 257 243 266 259 262 249 249 244
20 17 14 9 6 3 1 358 354 352 350 349 346 342 337 333 329 324 318 315 314 309 311 299 182 180 252 61 97 210 195 174 188 200 242 267 232 250 255 283 237 242 237 256 239 220 197
16 14 11 5 4 2 360 356 352 350 348 348 346 343 338 334 329 323 318 317 312 319 89 128 163 225 214 137 192 151 261 243 180 184 189 179 196 223 194 234 247 228 257 241 240 175 177
11 9 6 4 2 360 357 354 351 350 348 347 346 343 339 336 330 326 322 309 265 192 170 232 264 230 172 112 109 134 128 196 199 166 163 203 209 218 211 221 231 235 243 240 257 159 214
6 4 2 0 358 356 354 353 351 350 348 346 345 341 339 338 336 327 323 267 292 189 358 285 308 297 290 12 214 189 164 179 187 210 216 200 233 222 229 229 248 272 273 268 268 252 243
2 359 357 355 354 353 353 351 351 349 349 345 343 340 339 337 335 320 14 58 39 316 305 287 270 272 287 299 246 188 199 200 207 226 231 221 247 252 267 268 264 241 249 253 261 273 252
355 353 353 353 352 351 350 349 349 347 347 345 342 339 337 334 328 298 47 48 332 273 263 261 240 292 347 242 306 140 227 217 234 230 213 221 200 2 205 217 225 234 241 251 269 315 255
352 350 350 350 348 349 348 346 345 346 344 343 340 337 336 332 291 338 29 357 339 237 277 125 165 128 205 280 217 58 275 292 219 242 229 247 262 226 235 251 229 245 24 309 282 274 275
345 346 347 347 348 346 345 343 342 344 342 339 335 335 335 331 315 349 329 324 317 234 308 81 125 90 202 246 53 152 147 203 264 248 221 178 249 225 236 257 293 33 32 343 285 271 284
340 340 340 343 341 341 340 338 338 339 339 336 333 335 337 270 261 341 325 316 253 236 244 141 127 238 311 189 192 136 198 222 330 267 235 269 87 348 15 41 9 82 292 265 286 261 252
334 337 337 339 340 339 338 339 337 337 338 336 333 333 330 308 337 325 321 253 263 245 105 60 331 325 325 274 261 242 209 203 250 239 215 196 197 120 207 210 146 199 210 223 203 194 247
335 335 337 337 335 336 336 337 336 338 338 335 330 321 311 293 327 324 288 261 259 51 13 2 319 300 252 14 210 285 250 238 198 265 287 256 236 167 133 288 319 203 260 274 278 298 332
330 332 334 334 333 335 332 333 334 337 339 336 325 336 283 352 336 312 282 259 340 12 345 329 311 267 221 193 308 308 242 278 34 304 237 263 201 116 55 323 278 156 216 9 307 262 266
331 331 333 331 331 330 332 331 332 334 338 336 321 318 287 329 329 261 259 278 0 358 333 319 299 304 311 354 314 304 271 80 163 352 331 22 279 126 113 207 189 301 15 244 193 261 253
330 329 328 327 325 325 326 328 331 330 338 330 332 320 24 336 289 255 293 357 325 350 349 320 313 301 304 316 321 295 289 103 25 331 315 356 277 127 188 203 320 206 224 203 295 271 266
326 326 326 325 328 326 326 327 329 332 339 327 306 319 7 329 298 360 15 333 331 334 335 305 302 296 304 304 281 277 284 52 56 342 306 40 300 278 285 107 53 334 296 326 259 258 318
324 324 323 324 324 321 323 323 326 330 341 322 308 292 297 311 337 3 343 319 314 314 336 327 305 25 330 315 301 285 318 17 23 6 352 318 213 288 249 157 96 203 173 216 274 277 268
321 320 322 321 322 321 320 325 326 328 336 263 294 300 272 92 27 324 333 302 311 321 312 292 279 287 301 299 296 297 294 290 337 299 293 316 250 251 269 295 320 279 274 268 248 252 271
318 319 317 320 322 323 325 327 331 330 333 118 221 270 347 288 293 303 250 270 284 301 254 283 284 271 317 285 293 271 297 323 314 319 265 275 267 271 268 279 289 286 276 270 255 254 257
315 317 320 324 322 320 322 322 323 326 32 216 247 265 208 264 271 256 238 235 251 275 251 270 273 281 266 250 276 292 293 279 270 246 256 238 271 281 272 262 260 268 262 260 260 263 265
310 309 311 318 318 315 314 313 313 314 324 238 204 301 257 272 222 225 243 263 244 264 275 265 282 289 279 273 282 282 282 271 254 265 262 264 272 247 268 299 310 266 252 240 252 240 258
308 313 315 319 313 312 312 314 315 308 299 282 195 186 240 268 246 227 255 260 251 263 269 279 280 278 289 283 293 270 256 255 254 259 247 235 262 246 277 283 244 72 25 348 284 271 270
310 313 318 312 310 311 314 311 310 310 307 291 272 201 217 264 269 268 248 253 263 280 271 265 278 295 358 300 273 280 268 224 212 211 227 220 229 266 254 265 294 303 77 92 339 315 18
317 315 313 308 310 309 310 309 305 301 298 297 268 200 246 275 266 322 291 225 242 267 285 251 133 80 131 257 260 263 296 329 253 141 192 192 218 264 201 263 274 86 73 11 316 230 23
314 313 309 308 309 308 309 311 310 303 299 290 275 214 205 253 280 207 221 215 162 241 261 288 195 175 195 243 262 271 269 1 277 255 167 160 181 223 240 260 264 79 80 336 246 70 17
313 311 309 310 309 309 306 309 309 306 300 298 276 264 253 252 237 204 182 201 201 231 259 105 232 177 169 246 269 218 262 118 282 59 179 228 236 205 231 259 261 92 120 274 71 46 26
311 311 307 304 304 304 304 301 301 303 304 299 249 174 265 246 304 337 263 257 260 277 286 173 295 124 225 261 231 303 231 193 299 284 72 258 227 324 249 13 67 43 53 97 83 317 332